Вернуться в каталог

STARLINK-11728

АктивенСвязьVLEO
NORAD 64323·PAYLOAD·🇺🇸 United States

Запущен Jun 10, 2025 с Cape Canaveral Space Force Station

Loading…

Ближайшие Пролёты (ближайшие 24 часа)

TLE

СвежийSource: CelesTrak SupGP

Эпоха: Sep 15, 2026, 03:20 UTC

1 64323C 25124G   26258.13937500  .00014212  00000+0  11042-3 0  2581
2 64323  42.9998 326.8913 0001595 275.3318 104.2690 15.70824028    12

Отслеживайте STARLINK-11728 в реальном времени с AllMySat

Download on the App Store